Powrót do katalogu

USA 40 R/B DEB

AktywnyHEO
NORAD 23380·DEBRIS·🇺🇸 United States

Wystrzelony Aug 8, 1989 z Cape Canaveral Space Force Station

Loading…

Następne Przeloty (najbliższe 24 godziny)

TLE

ŚwieżeSource: Space-Track

Epoka: Sep 10, 2026, 23:39 UTC

1 23380U 89061BC  26253.98582668  .00006691  00000-0  46656-2 0  9991
2 23380  57.0266 251.0030 2932960   0.4218 359.8234  9.02591616 93398

Śledź USA 40 R/B DEB w czasie rzeczywistym z AllMySat

Download on the App Store